Location: Hamlin Beach State Park
(43.3614°N, 77.9586°W)
Time: 18:49:32
(UTC-05:00)

N. Korean satellite - Visible Passes

Search period start: 12 December 2017 00:00
Search period end: 22 December 2017 00:00
Orbit: 461 x 513 km, 97.2° (Epoch: 11 December)

Date Brightness Start Highest point End Pass type
(mag) Time Alt. Az. Time Alt. Az. Time Alt. Az.
12 Dec 8.3 06:34:22 10° NNE 06:37:52 38° E 06:41:19 10° SSE visible
12 Dec 8.0 17:12:17 10° ESE 17:14:56 19° ENE 17:17:37 10° NNE visible
12 Dec 8.6 18:44:55 10° SSW 18:48:13 31° W 18:51:35 10° NNW visible
13 Dec 9.6 06:11:23 10° NE 06:14:12 20° E 06:16:57 10° SE visible
13 Dec 7.1 18:20:56 10° S 18:24:36 62° W 18:28:20 10° NNW visible
14 Dec 10.2 05:49:33 10° ENE 05:50:25 11° E 05:51:17 10° ESE visible
14 Dec 6.6 17:57:22 10° SSE 18:01:03 66° ENE 18:04:47 10° N visible
15 Dec 6.9 06:57:00 10° NNE 07:00:44 76° ESE 07:04:23 10° S visible
15 Dec 7.3 17:34:13 10° SE 17:37:35 33° ENE 17:41:00 10° N visible
15 Dec 9.6 19:08:42 10° SW 19:11:11 17° W 19:13:43 10° NW visible
16 Dec 8.3 06:33:39 10° NNE 06:37:08 37° E 06:40:31 10° SSE visible
16 Dec 8.1 17:11:32 10° ESE 17:14:12 19° ENE 17:16:52 10° NNE visible
16 Dec 8.5 18:44:08 10° SSW 18:47:29 31° W 18:50:52 10° NNW visible
17 Dec 9.6 06:10:40 10° NE 06:13:26 20° E 06:16:08 10° SE visible
17 Dec 7.1 18:20:09 10° S 18:23:50 63° W 18:27:35 10° NNW visible
18 Dec 10.3 05:49:02 10° E 05:49:38 10° E 05:50:14 10° E visible
18 Dec 6.6 17:56:36 10° SSE 18:00:17 65° ENE 18:04:02 10° N visible
19 Dec 6.9 06:56:15 10° NNE 06:59:58 75° ESE 07:03:34 10° S visible
19 Dec 7.3 17:33:26 10° SE 17:36:48 33° ENE 17:40:14 10° N visible
19 Dec 9.6 19:07:52 10° SW 19:10:24 17° W 19:12:58 10° NW visible
20 Dec 8.4 06:32:54 10° NNE 06:36:20 36° E 06:39:40 10° SSE visible
20 Dec 8.1 17:10:45 10° ESE 17:13:25 19° ENE 17:16:05 10° NNE visible
20 Dec 8.5 18:43:19 10° SSW 18:46:41 32° W 18:50:06 10° NNW visible
21 Dec 9.6 06:09:55 10° NE 06:12:37 19° E 06:15:14 10° SE visible
21 Dec 7.1 18:19:20 10° S 18:23:03 64° W 18:26:48 10° NNW visible
